Overview Statistics Trail Chart Weather Telemetry Raw packets
 

This is the latest recevied weather packets stored in our database for station/object SV9TNF-52. If no packets are shown the sender has not sent any weather packets the latest 10 day(s).

<< 77 78 79 80 81 82 83 >>
Time Temp. Humidity Pressure Rain* Wind** Luminosity Snow
1788123449 23.33° C 71% 1021.7 hPa 0 mm 5.36 m/s, 216° - -
1788123149 23.33° C 71% 1021.7 hPa 0 mm 3.13 m/s, 214° - -
1788122849 23.33° C 70% 1021.7 hPa 0 mm 4.92 m/s, 220° - -
1788122549 23.33° C 70% 1021.7 hPa 0 mm 4.92 m/s, 181° - -
1788122249 23.33° C 70% 1021.7 hPa 0 mm 5.81 m/s, 236° - -
1788121949 23.33° C 70% 1021.7 hPa 0 mm 8.05 m/s, 152° - -
1788121648 23.33° C 70% 1021.7 hPa 0 mm 7.6 m/s, 185° - -
1788121349 23.33° C 69% 1021.7 hPa 0 mm 4.47 m/s, 178° - -
1788121048 23.89° C 69% 1021.7 hPa 0 mm 4.92 m/s, 212° - -
1788120748 23.89° C 68% 1021.7 hPa 0 mm 4.02 m/s, 182° - -
1788120448 23.89° C 68% 1021.7 hPa 0 mm 2.24 m/s, 225° - -
1788120148 23.89° C 68% 1021.7 hPa 0 mm 4.02 m/s, 213° - -
1788119848 23.89° C 67% 1021.7 hPa 0 mm 2.68 m/s, 176° - -
1788119548 23.89° C 67% 1021.7 hPa 0 mm 1.79 m/s, 264° - -
1788119248 23.89° C 67% 1021 hPa 0 mm 4.92 m/s, 202° - -
1788118948 23.89° C 67% 1021 hPa 0 mm 4.92 m/s, 190° - -
1788118648 23.89° C 67% 1021 hPa 0 mm 4.47 m/s, 223° - -
1788118348 23.89° C 66% 1021 hPa 0 mm 3.13 m/s, 199° - -
1788118048 23.89° C 66% 1021 hPa 0 mm 5.81 m/s, 212° - -
1788117747 23.89° C 66% 1021 hPa 0 mm 5.81 m/s, 257° - -
1788117447 23.89° C 66% 1021 hPa 0 mm 4.92 m/s, 170° - -
1788117147 23.89° C 66% 1021 hPa 0 mm 4.47 m/s, 148° - -
1788116847 23.89° C 65% 1021 hPa 0 mm 3.13 m/s, 203° - -
1788116547 23.89° C 65% 1021 hPa 0 mm 3.58 m/s, 203° - -
1788116247 23.89° C 65% 1021 hPa 0 mm 4.02 m/s, 191° - -

* Rain latest hour (hover to see other rain measurements)
** Current wind speed in m/s (hover to see current wind gust speed)